Temperature
21 20 20 20 20 20 20 20 20 20 20 20 20 20 20 20 20 20 20 20 20 20 20 19 19 19 20 20 20 20 20 20 20 19 19 19 19 19 19 19 18 18 18
22 20 20 20 20 20 20 20 20 20 20 20 20 20 20 20 20 20 20 20 20 20 20 20 20 20 20 20 20 20 20 20 20 19 19 19 19 19 19 19 19 18 18
22 21 20 20 20 20 20 20 20 20 20 20 20 20 20 20 20 20 20 20 20 20 20 20 20 20 20 20 20 20 20 20 19 19 19 19 19 18 18 18 18 18 18
22 21 20 20 21 21 21 20 20 20 20 20 20 20 20 20 20 20 20 20 20 20 20 20 20 20 20 20 20 20 19 19 19 19 19 19 18 18 18 18 18 18 18
22 21 21 20 21 21 21 21 20 20 20 20 20 20 20 20 20 20 20 19 19 19 19 20 20 20 20 20 19 19 19 19 19 19 18 18 18 18 18 18 17 17 18
22 21 21 21 21 21 21 21 20 20 20 20 20 20 20 20 20 20 19 19 19 19 19 19 19 19 19 19 19 19 19 19 19 18 18 18 18 18 18 17 17 17 17
22 21 21 21 21 21 21 21 20 20 20 20 20 20 20 20 19 19 19 19 19 19 19 19 19 19 19 19 19 19 19 19 18 18 18 18 18 18 18 17 17 17 17
23 22 21 21 21 21 21 21 20 20 20 20 20 20 20 19 19 19 19 19 19 19 19 19 19 19 19 19 19 19 19 18 18 18 18 18 18 18 18 17 17 17 17
22 22 21 21 21 21 21 21 20 20 20 20 20 20 20 20 19 19 19 19 19 19 19 19 19 19 19 19 19 19 18 18 18 18 18 18 18 18 18 18 17 17 17
22 22 22 21 21 21 21 21 20 20 20 20 20 20 20 20 20 19 19 19 19 19 19 19 19 19 19 19 18 18 18 18 18 18 18 18 18 18 18 18 17 17 17
22 22 22 22 21 21 21 21 21 21 20 20 20 20 20 20 20 20 19 19 19 19 19 19 19 19 18 18 18 18 18 18 18 18 18 18 18 18 18 18 18 17 17
23 22 22 22 22 21 21 21 21 21 21 21 21 20 20 20 20 20 19 19 19 19 19 19 19 18 18 18 18 18 18 18 18 18 18 18 18 18 18 18 18 18 17
23 23 22 22 22 22 21 21 21 21 21 21 21 20 20 20 20 20 19 19 19 19 19 19 18 18 18 18 18 18 18 18 18 18 18 18 18 18 18 18 18 18 18
23 23 23 22 22 22 21 21 21 21 21 21 21 20 20 20 20 20 20 19 19 19 19 18 18 18 18 18 18 18 18 18 18 18 18 18 18 18 18 18 18 18 18
23 23 23 22 22 22 21 21 21 21 21 21 20 20 20 20 20 19 19 19 19 19 19 18 18 18 18 18 18 18 18 18 18 18 18 18 18 18 18 18 18 18 18
23 22 22 22 22 21 21 21 21 20 20 20 20 20 20 19 19 19 19 19 19 19 18 18 18 18 18 18 18 18 18 18 18 18 18 18 18 18 18 18 18 18 18
23 22 22 21 21 21 21 20 20 20 19 19 19 19 19 19 19 19 19 19 19 19 18 18 18 18 18 18 18 18 17 18 18 18 18 18 18 19 19 19 18 18 18
23 22 22 21 21 21 20 20 20 19 19 19 19 19 19 19 18 18 18 18 19 18 18 18 18 18 17 17 17 17 17 17 18 18 18 18 18 19 19 19 19 19 18
23 22 22 21 21 20 20 20 19 19 19 18 18 18 18 18 18 18 18 18 18 18 18 18 18 17 17 17 17 17 17 17 17 18 18 18 18 18 19 19 19 19 19
22 22 22 21 21 20 20 19 19 19 18 18 18 18 18 18 18 17 17 17 17 17 17 17 17 17 17 17 17 17 17 17 17 18 18 18 18 18 18 18 19 19 19
22 22 22 21 21 20 20 19 19 19 19 18 18 18 18 17 17 17 17 17 17 17 17 17 17 17 17 17 17 17 17 17 17 18 18 18 18 18 18 18 18 18 19
23 22 22 22 21 21 20 20 19 19 18 18 18 17 17 17 17 17 17 17 17 17 17 17 17 17 17 16 16 16 16 16 17 17 17 17 17 17 17 17 18 18 18
22 22 22 21 21 20 20 19 19 18 18 18 17 17 17 17 17 17 16 17 17 16 16 17 17 16 16 16 16 16 15 16 16 17 17 17 17 17 17 17 17 17 17
22 22 21 21 21 20 19 19 18 18 17 17 17 16 16 16 16 16 16 16 16 16 16 16 16 16 16 16 16 15 15 15 15 15 16 16 16 16 16 16 16 17 17
21 21 21 21 20 20 19 18 18 17 17 17 16 16 16 16 16 15 15 15 15 15 15 15 15 15 15 15 15 15 15 15 15 15 15 15 16 16 16 16 16 16 16
21 21 21 20 20 20 19 18 18 17 17 16 16 16 16 15 15 15 15 15 15 15 15 15 15 15 15 15 15 15 15 15 15 15 14 15 15 15 15 15 15 16 16
Wind_Speed
8 13 21 20 19 18 17 16 16 17 17 17 17 16 15 14 13 12 11 10 9 9 8 8 8 9 9 9 10 10 11 11 10 11 11 11 10 10 11 12 12 11 12
13 17 22 21 20 18 17 16 16 16 16 16 16 15 14 13 12 11 10 10 9 9 8 8 7 7 8 8 9 9 9 9 9 9 9 8 7 7 9 11 11 10 12
14 17 21 21 20 19 18 17 16 15 15 15 14 14 13 12 11 10 9 9 8 8 8 7 7 7 7 7 7 7 7 7 7 7 6 4 4 5 8 9 11 11 12
14 15 18 21 20 19 18 17 16 15 15 14 13 13 12 11 10 9 8 8 7 7 7 6 6 6 6 6 6 6 5 5 5 5 3 3 2 4 6 8 10 11 12
12 14 18 22 20 19 18 17 16 15 15 14 13 12 11 10 9 8 8 7 7 6 6 6 6 6 6 6 5 5 5 4 4 4 2 3 3 5 7 9 10 11 12
11 14 18 22 20 19 18 17 17 16 14 13 12 12 11 10 9 9 8 8 7 7 7 7 7 7 6 6 6 6 6 6 6 4 4 5 6 7 10 11 12 12 13
11 12 16 21 20 19 19 18 17 16 14 13 12 11 11 10 10 10 10 10 9 9 9 9 8 8 8 8 8 8 8 8 7 6 7 7 8 10 12 14 15 15 15
13 11 14 21 20 19 18 17 16 15 14 13 12 12 11 11 11 11 11 11 11 11 11 11 11 10 10 10 10 10 10 10 8 7 7 8 10 11 12 15 17 17 17
9 8 9 15 18 18 18 17 16 15 14 13 13 12 12 12 12 13 13 13 13 13 13 13 13 13 12 12 12 12 12 12 11 9 9 9 11 12 12 15 17 19 20
8 8 7 9 12 13 14 16 16 15 14 14 13 13 13 13 14 14 14 14 14 14 14 14 15 14 14 14 14 14 14 14 12 11 11 11 14 14 15 15 17 20 21
9 7 7 6 8 9 10 13 15 15 15 15 14 14 14 12 12 12 13 15 16 16 16 16 16 16 16 15 16 16 15 12 12 11 11 14 16 16 17 17 18 20 21
12 11 8 7 6 7 10 10 10 11 11 12 11 12 11 10 11 12 12 16 17 18 18 18 18 18 17 14 14 15 12 13 12 12 13 17 18 18 18 18 18 19 20
11 11 10 9 7 7 6 6 6 8 8 10 11 12 10 9 9 11 10 12 14 15 14 15 15 14 13 12 12 12 13 13 12 12 14 18 19 19 19 19 19 20 21
9 11 9 10 9 8 7 5 5 6 6 8 11 12 10 7 7 8 9 10 11 11 11 12 10 13 14 15 14 13 13 12 12 12 14 19 20 20 20 19 20 20 20
10 10 10 10 10 9 8 6 6 6 7 9 10 12 12 8 8 8 8 9 11 11 10 8 9 9 10 11 12 12 12 13 14 14 13 18 19 20 21 20 20 20 20
10 10 9 10 10 9 8 7 6 6 8 9 10 13 14 12 9 8 9 8 9 11 11 9 9 9 8 7 10 10 11 12 13 14 14 16 19 20 20 20 20 21 21
10 9 9 9 9 9 9 8 6 6 7 7 10 13 13 13 11 9 9 9 9 11 11 9 8 6 6 7 9 10 9 10 11 12 13 13 14 17 19 20 20 21 21
7 7 7 7 8 9 8 7 6 6 6 6 9 10 12 14 14 9 10 10 10 10 8 8 6 5 6 6 7 8 8 8 11 11 11 12 13 14 15 18 19 20 21
6 6 6 5 5 6 7 6 5 5 5 6 8 8 10 12 13 9 10 10 9 8 8 8 6 5 5 6 7 8 8 9 10 11 11 11 13 14 14 15 18 19 20
5 5 5 4 4 4 4 3 3 4 5 5 5 6 9 9 10 8 8 10 9 8 8 8 8 7 6 7 8 9 8 10 9 10 11 10 10 11 12 12 12 12 16
5 5 5 5 4 3 2 2 2 3 4 3 4 4 5 6 7 6 7 8 8 9 10 10 8 9 8 6 5 7 8 10 11 9 9 8 9 9 9 9 9 9 9
5 5 5 5 4 3 2 2 2 2 2 3 3 4 5 5 6 6 6 6 6 7 9 9 8 7 6 7 6 4 4 4 6 7 6 7 7 5 6 6 6 6 7
5 6 5 5 4 4 2 0 1 2 2 3 3 4 5 6 6 5 7 6 6 6 7 8 9 10 8 8 8 6 5 6 2 2 4 4 4 3 4 4 4 4 5
7 5 5 5 4 3 2 1 1 1 3 3 3 4 6 6 6 6 7 6 6 6 7 7 8 8 9 8 6 8 7 4 3 2 2 2 3 3 3 2 2 2 2
6 5 5 5 4 3 2 3 2 3 3 3 4 5 5 5 6 6 7 6 7 6 7 8 7 8 8 9 7 5 7 6 6 5 4 2 2 2 2 1 1 1 1
5 5 5 6 5 4 4 4 4 4 5 5 6 6 5 5 5 6 7 7 7 7 7 8 8 9 9 9 8 7 6 5 5 6 6 4 2 1 1 1 2 2 2
Wind_Direction
164 163 165 160 155 151 148 144 141 139 137 138 138 138 138 138 138 136 134 131 128 125 122 119 117 118 119 118 117 117 118 119 120 121 119 117 117 121 124 123 121 121 122
153 161 165 161 157 155 152 150 148 146 145 145 144 144 144 143 143 142 141 139 137 135 132 130 129 128 127 126 125 124 124 125 128 130 126 122 120 127 136 134 134 134 132
148 160 163 161 159 158 157 155 155 154 152 152 151 150 150 150 150 150 151 150 148 146 144 143 143 141 139 137 135 134 133 133 136 139 134 124 126 137 149 147 147 145 142
148 157 162 163 162 162 162 162 162 161 160 159 159 159 159 159 160 161 162 163 162 161 159 160 161 160 158 157 156 154 153 153 156 156 149 168 179 168 169 169 164 160 156
148 156 165 166 166 167 167 168 168 168 168 168 168 169 171 173 175 177 178 180 183 183 184 184 185 185 186 187 188 188 190 194 200 200 203 229 241 223 203 196 189 181 173
150 157 169 168 170 171 172 173 174 175 176 177 179 181 184 188 193 197 199 202 205 207 209 210 211 211 213 215 217 220 222 226 230 233 240 247 249 245 228 217 210 202 191
153 159 173 172 175 176 177 178 180 181 182 185 188 192 198 203 208 214 216 218 221 223 226 227 228 229 230 232 234 237 239 242 240 235 243 248 251 254 242 228 221 214 206
158 160 173 176 179 181 183 184 185 187 189 193 197 203 209 215 220 225 228 228 230 233 235 237 238 239 242 244 245 248 250 252 255 248 244 245 250 256 250 236 228 220 214
155 157 172 179 183 186 188 190 192 194 196 201 207 213 218 225 230 234 236 238 239 241 243 245 247 248 250 251 253 255 258 259 259 256 257 253 252 255 255 246 235 227 221
154 164 170 175 179 184 191 197 199 201 204 209 215 221 227 232 237 240 242 245 248 249 250 252 253 254 256 257 259 261 264 267 265 264 262 260 258 257 256 253 244 235 228
172 176 175 173 175 179 188 202 205 209 212 215 221 227 232 235 242 248 251 250 253 256 257 257 258 259 261 262 262 263 266 263 264 266 265 264 263 261 258 254 249 243 235
185 188 188 182 176 178 196 206 210 214 216 219 221 227 233 233 238 247 253 257 259 260 261 261 261 261 262 260 262 265 263 262 264 265 265 265 265 264 261 256 252 249 245
186 190 194 193 185 188 200 204 211 216 219 223 225 227 232 238 242 248 251 257 261 264 265 264 264 260 255 252 254 254 255 259 261 262 264 266 266 267 266 261 256 254 252
180 194 194 195 196 199 204 212 214 218 221 226 230 229 228 236 242 245 247 248 249 252 254 257 257 257 255 253 252 254 255 255 256 257 261 265 266 267 269 268 265 262 258
187 194 195 193 200 205 210 220 221 224 230 233 234 232 228 233 242 242 246 248 248 247 246 249 250 254 256 258 257 255 254 254 255 254 258 262 264 266 268 269 269 266 262
192 194 193 194 201 204 213 221 229 231 235 240 240 237 231 232 238 241 244 244 245 244 245 244 246 251 257 262 264 260 258 258 258 257 257 261 262 263 265 267 267 265 260
190 190 192 195 199 206 215 223 229 233 236 239 243 243 238 235 237 239 245 247 245 243 242 243 244 244 254 259 264 267 265 260 258 258 260 261 263 262 261 261 262 262 258
173 177 193 203 201 210 216 225 231 235 238 245 248 248 244 241 239 239 245 249 246 243 238 238 236 239 246 255 264 268 268 268 264 261 261 260 260 261 260 260 260 260 259
149 158 174 185 194 207 216 224 233 240 244 250 254 255 254 251 245 237 244 246 243 240 237 235 229 224 237 246 258 266 265 263 261 262 259 259 258 257 258 260 259 258 259
134 147 159 176 193 198 205 220 238 250 254 255 256 260 262 260 257 246 247 249 243 241 237 229 226 220 223 226 243 254 255 257 256 253 255 259 261 260 258 257 258 258 256
142 156 168 178 189 171 167 197 231 255 263 267 269 277 283 281 277 265 264 260 246 239 237 229 224 224 225 213 230 253 256 252 251 250 250 253 257 259 257 253 254 254 256
176 182 185 188 187 188 187 195 214 247 271 274 292 303 304 303 297 291 281 275 262 250 246 238 227 229 226 203 209 229 256 265 248 242 241 241 246 250 254 254 253 251 249
203 200 198 202 201 205 200 126 358 347 328 320 316 315 314 314 308 300 294 287 277 261 254 246 234 232 235 221 209 207 218 233 251 255 236 233 237 246 259 266 263 263 259
222 215 210 209 211 215 178 173 207 252 277 276 290 296 306 309 310 309 304 298 288 275 263 253 241 236 234 234 222 220 222 199 199 251 264 253 251 250 257 261 269 283 287
232 222 218 212 219 222 205 201 215 247 259 284 297 301 305 307 307 309 308 303 294 280 270 263 255 243 235 233 225 215 223 224 216 219 243 254 275 276 280 267 259 318 21
244 225 215 211 223 221 216 216 220 245 271 293 302 307 308 306 304 309 310 304 295 286 275 267 259 251 242 235 229 219 208 205 206 210 223 228 230 257 333 8 38 29 29
Height
1508 1512 1515 1519 1522 1525 1527 1529 1531 1533 1535 1536 1537 1538 1539 1540 1541 1542 1542 1543 1544 1544 1545 1545 1546 1546 1546 1547 1547 1547 1547 1548 1548 1548 1548 1549 1549 1549 1549 1550 1550 1551 1551
1506 1511 1515 1519 1522 1525 1528 1530 1532 1534 1536 1537 1539 1540 1541 1542 1543 1543 1544 1545 1545 1546 1546 1547 1547 1548 1548 1548 1548 1549 1549 1549 1549 1550 1550 1550 1550 1551 1551 1551 1552 1552 1553
1507 1511 1515 1519 1523 1526 1528 1531 1533 1535 1537 1538 1540 1541 1542 1543 1544 1545 1546 1546 1547 1547 1547 1548 1548 1549 1549 1549 1550 1550 1550 1551 1551 1551 1551 1551 1552 1552 1552 1553 1553 1553 1554
1509 1512 1516 1520 1523 1526 1529 1531 1533 1535 1537 1539 1540 1542 1543 1544 1545 1546 1547 1547 1548 1548 1548 1549 1549 1550 1550 1550 1551 1551 1551 1551 1552 1552 1552 1552 1552 1553 1553 1553 1554 1554 1555
1510 1514 1517 1520 1524 1527 1529 1532 1534 1536 1538 1539 1541 1542 1543 1545 1545 1546 1547 1548 1548 1549 1549 1549 1550 1550 1550 1551 1551 1551 1551 1552 1552 1552 1552 1552 1553 1553 1553 1553 1554 1555 1555
1511 1515 1518 1521 1524 1527 1530 1532 1534 1536 1538 1540 1541 1542 1544 1545 1545 1546 1547 1547 1548 1548 1549 1549 1550 1550 1550 1551 1551 1551 1551 1551 1551 1552 1552 1552 1552 1552 1552 1553 1553 1554 1555
1512 1516 1519 1522 1525 1527 1530 1532 1534 1536 1538 1540 1541 1542 1543 1544 1545 1545 1546 1547 1547 1548 1548 1549 1549 1549 1550 1550 1550 1550 1550 1550 1550 1551 1551 1551 1551 1551 1552 1552 1552 1553 1553
1513 1516 1519 1522 1525 1528 1530 1532 1534 1536 1538 1539 1541 1542 1543 1543 1544 1545 1545 1545 1546 1546 1547 1547 1548 1548 1548 1549 1549 1549 1549 1549 1549 1549 1549 1549 1549 1550 1550 1550 1551 1551 1552
1514 1517 1520 1522 1525 1528 1530 1532 1534 1536 1538 1539 1540 1541 1542 1542 1543 1543 1544 1544 1545 1545 1545 1546 1546 1547 1547 1547 1547 1547 1547 1547 1547 1547 1547 1547 1547 1547 1547 1548 1549 1549 1550
1514 1517 1519 1522 1525 1527 1530 1532 1534 1536 1537 1538 1539 1540 1540 1541 1541 1542 1542 1543 1543 1544 1544 1544 1545 1545 1545 1545 1545 1545 1545 1545 1545 1544 1544 1544 1544 1544 1544 1545 1546 1547 1547
1514 1516 1519 1522 1524 1527 1529 1531 1533 1534 1535 1536 1537 1538 1539 1539 1540 1540 1541 1541 1542 1542 1542 1542 1542 1543 1543 1542 1542 1542 1542 1542 1542 1542 1541 1541 1541 1541 1541 1542 1543 1544 1545
1512 1516 1519 1521 1524 1526 1528 1530 1531 1532 1533 1534 1535 1536 1537 1538 1538 1539 1539 1539 1540 1540 1540 1540 1540 1540 1540 1540 1540 1540 1539 1539 1539 1538 1538 1539 1539 1538 1538 1539 1540 1541 1541
1512 1515 1518 1521 1523 1525 1527 1528 1529 1530 1531 1532 1533 1534 1535 1535 1536 1536 1536 1537 1537 1537 1537 1537 1538 1538 1538 1537 1537 1537 1537 1536 1536 1535 1536 1536 1536 1536 1536 1536 1537 1537 1538
1513 1515 1518 1520 1522 1524 1525 1526 1527 1527 1528 1529 1530 1531 1532 1532 1533 1533 1533 1534 1534 1534 1534 1535 1535 1535 1535 1535 1535 1534 1534 1533 1533 1532 1532 1533 1533 1533 1533 1533 1533 1534 1534
1513 1515 1517 1519 1521 1522 1523 1524 1524 1525 1525 1526 1527 1528 1528 1529 1529 1529 1530 1530 1530 1530 1530 1531 1531 1531 1532 1532 1531 1531 1531 1530 1530 1529 1529 1529 1529 1529 1529 1529 1529 1530 1530
1512 1514 1516 1518 1519 1521 1521 1522 1522 1522 1523 1523 1524 1524 1525 1524 1525 1525 1525 1525 1525 1526 1526 1526 1526 1527 1527 1527 1527 1527 1527 1526 1526 1525 1525 1525 1524 1524 1524 1525 1525 1525 1525
1511 1513 1515 1517 1518 1519 1519 1519 1520 1520 1520 1520 1520 1520 1520 1520 1520 1520 1520 1520 1520 1521 1521 1521 1521 1521 1521 1522 1522 1522 1522 1521 1521 1520 1520 1519 1519 1519 1519 1519 1519 1519 1520
1511 1512 1514 1516 1516 1517 1517 1517 1517 1517 1516 1516 1516 1516 1516 1516 1516 1515 1515 1515 1515 1515 1515 1515 1515 1515 1515 1515 1515 1516 1516 1516 1515 1515 1514 1513 1513 1513 1513 1513 1513 1513 1514
1511 1512 1513 1514 1514 1514 1514 1514 1514 1514 1513 1512 1512 1511 1511 1510 1510 1509 1508 1508 1508 1508 1508 1508 1507 1508 1508 1508 1508 1509 1509 1509 1508 1508 1507 1507 1507 1507 1506 1506 1506 1507 1508
1511 1512 1513 1513 1513 1512 1512 1511 1511 1510 1509 1508 1507 1506 1505 1504 1504 1503 1502 1501 1501 1500 1500 1500 1500 1500 1501 1501 1501 1501 1501 1501 1501 1500 1500 1501 1500 1500 1500 1500 1500 1500 1501
1510 1511 1512 1512 1511 1511 1510 1509 1508 1507 1506 1505 1503 1502 1501 1499 1498 1497 1496 1495 1494 1493 1493 1493 1493 1493 1492 1493 1494 1493 1493 1494 1493 1493 1494 1494 1494 1494 1493 1493 1493 1494 1494
1509 1510 1510 1510 1510 1509 1509 1507 1506 1504 1503 1501 1499 1497 1496 1494 1492 1491 1489 1488 1487 1486 1486 1485 1485 1485 1485 1486 1487 1487 1486 1486 1485 1486 1487 1487 1487 1487 1487 1487 1487 1487 1488
1508 1509 1509 1509 1508 1508 1507 1506 1504 1502 1499 1497 1495 1493 1491 1489 1487 1485 1484 1482 1481 1480 1479 1478 1478 1478 1478 1478 1479 1481 1481 1479 1479 1480 1480 1481 1482 1482 1482 1482 1482 1482 1482
1506 1507 1507 1507 1507 1506 1505 1503 1501 1499 1496 1494 1491 1489 1486 1484 1482 1480 1478 1476 1474 1473 1472 1471 1471 1471 1471 1471 1472 1473 1474 1474 1475 1474 1476 1476 1477 1477 1477 1477 1477 1477 1478
1505 1505 1505 1505 1505 1504 1502 1500 1498 1496 1494 1491 1488 1485 1482 1480 1477 1475 1473 1470 1468 1467 1466 1465 1464 1464 1464 1464 1465 1466 1467 1467 1468 1470 1470 1471 1473 1473 1473 1473 1473 1473 1474
1503 1503 1503 1503 1502 1501 1499 1497 1495 1493 1490 1487 1484 1481 1478 1475 1472 1470 1467 1465 1463 1461 1460 1459 1458 1457 1457 1457 1458 1458 1460 1461 1461 1463 1464 1466 1467 1469 1469 1470 1470 1470 1471